CAPE
1354 1757 1844 2140 2167 2276 2263 2094 2353 2462 2443 2388 2337 2398 2299 2264 2161 2050 1987 1958 1901 1885 1830 1867 1818 1807 1826 1714 1655 1546 1336 1212 1207 1190 1302 1490 1466 1659 1585 1564 1408 1575 1431 1277 1241 1019 743 630 564 485 509 391 394 431 531 577 589 688 926 1181 1208 1290 1396 1502 1420 1396 1274 1220 1255 1260 1232 1054 970 948 918 770 731 793 533 562 495 474 348 247 139
1423 1698 1835 1944 2127 2230 2244 2153 2223 2373 2318 2334 2349 2360 2353 2247 2129 2045 1966 1915 1934 1898 1927 1916 1943 1868 1648 1569 1424 1372 1305 1262 1195 1136 1067 1107 1150 1232 1451 1533 1462 1399 1328 1190 1033 990 895 795 661 534 465 412 393 410 630 814 870 923 942 1002 1024 980 950 925 1146 1248 1341 1247 1095 1120 1118 1124 1007 760 828 754 652 648 534 505 381 172 225 385 344
1392 1660 1799 1998 2168 2220 2227 2188 2174 2287 2356 2352 2394 2358 2316 2270 2129 2039 2031 1952 1908 1959 1942 1986 1938 1803 1660 1412 1376 1299 1265 1263 1185 1107 926 872 739 1014 1109 1065 964 828 992 976 974 913 905 849 851 734 596 599 621 724 806 881 990 969 971 966 1015 1071 1114 1119 945 967 1217 1460 1255 1160 985 876 740 861 823 732 532 366 617 738 625 395 133 144 164
1370 1673 1830 2081 2064 2170 2181 2114 2186 2337 2348 2348 2368 2340 2328 2286 2125 2084 2013 2025 1981 1947 2002 1989 1850 1806 1612 1451 1290 1148 1032 884 826 854 824 767 702 658 829 891 850 866 858 1031 1003 882 868 910 917 858 769 777 818 834 890 922 949 962 974 958 990 985 1124 1132 1042 954 920 935 1321 990 961 261 646 915 896 682 700 617 241 274 402 340 269 217 205
1460 1714 1909 1882 1994 2174 2134 2333 2341 2285 2328 2388 2253 2250 2243 2214 2116 2049 2105 2074 2052 2031 2066 2047 1833 1745 1568 1372 1216 1127 1088 990 925 826 683 606 536 423 490 813 961 958 994 1052 867 892 820 895 936 863 814 832 852 895 832 828 897 897 959 807 912 1232 1179 1266 1445 1207 1160 1020 812 1667 887 433 577 1015 957 805 825 820 409 430 568 492 488 352 323
1447 1782 1784 1729 1868 2022 2212 2345 2219 2150 2182 2202 2169 2186 2079 2133 2171 2163 2117 2120 2144 2159 2110 2097 1928 1709 1493 1326 1225 1145 994 882 709 501 211 51 89 346 493 455 783 950 1020 1049 988 877 1070 958 1079 1102 1026 1076 1052 1082 1116 1194 1125 966 971 1240 1138 1281 1576 1442 1538 1582 1512 1532 1605 1070 869 268 494 587 908 963 943 818 748 563 666 625 399 178 258
1608 1632 1601 1687 1724 1963 2215 2203 2067 2102 2094 2119 2171 2127 2163 2167 2234 2254 2199 2200 2154 2180 2118 2100 2073 1866 1475 1328 1285 1129 1049 1030 724 563 563 529 454 224 113 238 577 836 1015 984 1141 1053 977 1115 1058 1110 1199 1236 1322 1496 1548 1548 1586 1495 1636 1425 1670 1769 1747 1877 1952 1986 1900 2053 1054 710 593 436 561 635 1088 1086 968 896 809 629 704 595 582 452 321
1294 1399 1517 1596 1648 2094 2139 2078 2037 2159 2068 2205 2090 2097 2138 2198 2223 2251 2234 2220 2186 2178 2180 2093 1919 1925 1724 1428 1290 1231 1195 970 840 838 555 342 222 288 300 377 670 798 786 1058 1147 1107 1092 1194 1185 1148 1258 1404 1527 1666 1797 1882 1873 1762 1902 1668 1964 1825 1915 2116 2102 2153 2264 921 809 612 10 103 586 744 1026 1099 1140 1109 906 761 760 577 615 599 423
994 1232 1442 1532 1748 2169 2098 2119 2086 2097 2054 2035 2094 2110 2190 2257 2214 2208 2224 2220 2256 2214 2117 2021 1931 1890 1640 1461 1350 1242 1053 1059 836 537 401 370 430 560 433 433 586 718 792 1012 1101 1104 1266 1172 1156 1076 1242 1475 1634 1838 1927 2058 2042 1945 2000 1808 1924 2062 1914 1781 2004 2048 1089 877 10 2 15 283 615 751 948 947 1066 974 826 864 707 655 556 470 404
985 1289 1445 1570 1786 2160 2198 2240 2238 2100 2122 2094 2131 2204 2190 2119 2250 2215 2202 2209 2274 2174 2058 2004 1892 1786 1496 1396 1196 1025 992 923 849 496 310 255 302 401 366 391 564 767 1024 1055 1192 1177 1326 1029 886 1031 1386 1408 1413 1576 1824 1938 2094 1927 1835 2008 1886 1725 1914 1963 2076 1117 658 665 1 0 62 344 440 768 1042 1122 1191 1191 1079 1077 907 822 687 606 425
1284 1375 1487 1632 1857 2178 2212 2268 2256 2171 2109 2114 2206 2225 2188 2166 2151 2198 2176 2218 2223 2131 2096 2043 1914 1539 1372 1249 1144 1110 1126 1172 1001 734 511 364 350 422 467 526 612 797 1024 1235 1345 1376 1158 961 857 1154 1264 1222 1340 1278 1400 1655 1721 2069 1801 2228 2033 1948 2066 2240 1788 508 545 543 582 704 986 924 690 1044 1370 1305 1276 1159 1141 1166 1056 962 793 736 631
1570 1390 1447 1688 2080 2079 2231 2292 2269 2285 2218 2224 2242 2268 2222 2193 2211 2177 2166 2206 2218 2164 2147 2010 1867 1494 1325 1290 1284 1309 1352 1167 943 630 441 456 483 530 539 493 593 824 987 1246 1215 1192 1027 1142 1039 1208 1226 1343 1354 1352 1472 1453 1585 1636 2024 2209 2019 2292 2379 2206 1298 593 625 434 115 114 225 489 945 1303 1486 1354 1230 1228 1219 1216 1172 1067 840 685 623
1544 1343 1497 1750 1794 2048 2189 2277 2368 2338 2244 2296 2311 2244 2227 2214 2166 2150 2211 2297 2233 2191 2076 1865 1760 1613 1457 1479 1489 1339 1125 968 898 730 488 474 471 505 574 606 608 650 1107 1112 978 1058 1116 1048 1418 1416 1708 1467 1447 1571 1541 1526 1677 1736 2015 1920 1934 2300 2221 2312 663 359 350 366 231 112 190 514 1114 1718 1580 1488 1334 1315 1294 1219 1177 1132 982 771 669
1650 1442 1574 1550 1658 2137 2205 2295 2363 2417 2370 2370 2361 2325 2281 2291 2194 2177 2313 2355 2198 2160 2060 1874 1788 1636 1597 1643 1524 1188 1014 977 763 703 603 541 438 432 418 526 599 790 971 1009 1084 1054 1403 1478 1420 1520 1207 1478 1200 1447 1394 1576 1594 1811 1808 2136 2215 2059 2263 1584 1142 416 309 84 483 261 335 872 1481 1876 1678 1638 1514 1547 1438 1368 1279 1214 1081 973 853
1892 1612 1434 1522 1785 1937 2239 2364 2402 2468 2473 2452 2375 2372 2409 2347 2319 2349 2374 2268 2253 2132 1996 1835 1811 1760 1776 1609 1463 1191 1086 945 760 509 440 382 476 397 400 404 560 645 882 914 1118 1173 1160 1279 1107 1066 1166 908 981 1318 1595 1703 1467 1677 2024 1875 1802 2130 2225 1717 1242 652 306 112 588 170 102 502 1744 1938 1849 1743 1655 1634 1542 1574 1452 1371 1181 990 870
2216 1736 1540 1672 1736 1879 2063 2167 2425 2573 2557 2478 2434 2474 2436 2422 2413 2394 2358 2348 2264 2118 2028 1959 1820 1858 1655 1456 1327 1129 933 831 687 569 474 402 329 380 408 396 558 653 821 976 1023 1173 1116 977 1053 1080 979 1081 1382 1097 1355 1242 1336 1604 1595 1543 1809 1955 2072 2493 1122 649 186 72 352 157 193 883 1718 2024 1756 1838 1782 1654 1620 1598 1630 1438 1101 851 736
2307 2017 1582 1644 1745 1820 1895 2006 2420 2632 2564 2500 2497 2496 2481 2442 2446 2405 2380 2296 2183 2096 1958 1878 1809 1751 1513 1380 1170 960 816 752 588 522 391 314 258 338 416 556 576 619 777 907 942 1148 1133 958 1058 1145 988 983 1063 1311 1442 1604 1630 1530 1564 1969 2118 1754 2259 2730 1472 496 314 430 369 166 188 837 1723 1922 1666 1665 1798 1659 1654 1636 1601 1589 1176 992 869
2441 2099 1702 1545 1677 1707 1938 2234 2422 2401 2374 2528 2486 2468 2471 2445 2443 2394 2320 2258 2199 2107 1998 1840 1756 1652 1408 1137 1005 848 773 658 544 404 308 219 325 347 389 500 501 616 730 887 1072 862 1128 1083 958 1174 1051 860 1037 1062 990 1020 1382 1535 1668 1716 1826 2105 2437 2399 722 288 228 1047 734 617 351 1016 1795 1941 1417 1300 1370 1435 1515 1508 1637 1551 1571 1239 1121
2189 2034 1700 1320 1391 1650 1932 2249 2310 2318 2329 2176 2249 2425 2400 2496 2409 2294 2203 2262 2212 1934 1737 1668 1621 1443 1252 1027 841 873 700 620 469 312 226 207 237 342 372 415 498 603 696 882 1056 1086 825 1142 997 1013 836 1061 1160 850 1293 1308 1302 1299 1422 1323 1530 1813 1787 1170 284 506 322 403 322 271 711 1584 2004 1545 1328 1385 1354 1494 1479 1600 1534 1586 1510 1405 1211
2023 1834 1196 1159 1318 1537 1937 2091 2179 2292 2173 2146 2232 2225 2351 2364 2194 2136 2178 2079 1889 1771 1672 1593 1429 1338 1099 926 891 828 494 325 375 255 215 241 245 383 383 421 500 628 758 810 1048 1013 991 800 856 970 1086 1022 840 1280 1127 1167 1256 1289 1324 1386 1493 1240 1276 451 273 468 825 1072 1130 1502 1990 1774 1824 1785 1868 1770 1866 1811 1740 1610 1538 1577 1323 1295 1171
1733 1443 1114 1083 1298 1636 1650 1852 2016 2097 2051 2174 2199 2168 2245 2260 2132 1977 2026 1903 1754 1564 1480 1279 1101 1197 967 1052 935 484 298 265 274 236 269 403 376 379 440 484 607 693 786 897 892 986 877 818 862 790 942 1049 1213 1013 1300 1340 1548 1226 1277 1487 1365 747 297 295 424 490 215 776 1436 1848 2231 2173 2099 2162 2206 2231 2148 2105 1826 1592 1557 1484 1291 1451 1313
1627 1550 1488 1026 1262 1361 1405 1682 1807 1934 1970 2131 2168 2156 2227 2081 1937 1894 1838 1766 1659 1434 1084 994 1434 1054 1178 1023 643 558 154 97 116 442 400 542 380 460 514 682 570 714 877 939 952 953 955 903 940 1057 1002 999 830 894 663 531 838 1212 1280 1441 1036 819 268 140 429 566 861 1290 1662 1991 2225 2261 2271 2197 2155 2124 2038 1875 1650 1572 1603 1478 1372 1281 1274
1618 1630 1471 1327 1212 1233 1308 1620 1759 1820 1933 2052 2071 2137 2072 1855 1834 1773 1680 1766 1696 1605 1044 1418 1072 883 819 617 467 262 48 129 105 459 350 500 429 395 498 696 471 618 828 928 967 1186 1006 1259 1024 1247 1138 1258 881 554 503 415 162 743 1370 1056 582 279 349 463 692 975 1261 1699 1939 2222 2209 2240 2132 2040 2007 1990 1885 1694 1375 1416 1361 1306 1242 1200 1216
1691 1633 1490 1203 1180 1156 1252 1471 1545 1772 1904 2015 2038 2048 1855 1773 1733 1670 1581 1512 1516 1232 1006 1074 781 216 74 74 252 221 334 441 352 933 591 444 288 469 679 732 689 766 764 1066 1053 1151 1042 1011 1289 954 1056 618 574 616 578 356 112 57 121 418 280 447 418 850 854 1140 1467 1614 1842 2032 1954 1920 2008 1947 1916 1853 1608 1352 1165 1025 1075 1021 1078 1091 1048
1675 1604 1507 1274 1106 1060 1179 1365 1373 1769 1869 1993 1989 1889 1773 1690 1638 1611 1536 1424 1445 1110 903 773 314 0 4 83 636 540 681 452 672 841 131 294 242 480 669 606 670 536 957 716 576 193 307 122 280 329 428 434 418 421 432 417 424 200 352 514 393 295 712 824 888 1051 1326 1510 1691 1712 1712 1752 1824 1763 1674 1462 1307 1224 1010 1089 1018 1053 903 908 953
1643 1564 1465 1307 1112 979 1074 1332 1359 1689 1879 2001 1887 1873 1812 1630 1570 1576 1466 1371 1427 1074 850 604 242 1 0 50 636 940 581 668 590 458 504 456 398 373 473 451 388 388 406 417 286 74 2 182 343 340 396 522 455 479 375 624 526 141 489 571 516 448 938 796 747 820 969 1235 1506 1556 1505 1520 1450 1368 1472 1449 1128 836 1056 1007 698 963 717 602 633
1630 1536 1459 1297 1105 989 1028 1265 1443 1705 1887 1931 1831 1767 1795 1615 1590 1547 1413 1333 1351 1108 877 832 545 3 0 168 770 728 533 619 772 668 422 91 140 140 215 198 117 108 139 212 316 136 660 507 421 442 444 586 520 419 419 335 470 424 451 525 382 588 892 853 686 607 697 1002 1331 1456 1370 1259 1163 1068 960 970 1001 976 962 890 831 792 650 558 408
1622 1573 1498 1307 1152 1072 1112 1214 1483 1698 1864 1851 1874 1711 1795 1665 1620 1634 1488 1348 1249 1020 1131 1059 940 205 18 550 641 242 574 363 540 548 326 9 2 0 18 20 5 25 23 242 457 658 406 397 704 483 362 541 450 294 196 0 63 0 0 343 591 1011 1103 970 631 525 498 769 1035 1190 983 723 572 454 432 392 387 366 331 407 387 305 377 366 446
1643 1545 1472 1280 1176 1036 1216 1207 1310 1683 1742 1850 1901 1788 1826 1788 1650 1524 1514 1525 1065 1045 1255 1025 550 271 850 376 238 98 657 427 554 629 740 152 0 0 0 0 0 3 205 103 607 1066 721 551 566 598 623 545 220 320 38 12 0 30 227 480 819 1163 1164 814 527 358 395 552 560 552 360 244 167 74 33 15 9 9 3 0 0 0 32 42 88
1618 1561 1446 1261 1212 1099 933 1047 1082 1156 1703 1841 1908 1826 1879 1871 1695 1600 1573 1570 1126 1125 1215 664 411 230 852 262 185 230 737 1185 588 754 826 579 260 35 0 0 122 687 1745 1576 1549 1170 846 1006 1058 1021 841 549 460 255 129 14 2 78 198 538 812 1209 1218 844 464 214 144 184 191 200 147 48 0 0 0 0 0 0 0 0 0 0 0 0 3
1623 1587 1410 1459 1413 1337 1085 1095 1154 1123 1604 1825 1882 1872 1803 1804 1718 1648 1558 1303 1187 1145 958 488 210 181 746 255 300 590 621 1529 937 563 318 880 718 327 486 1194 1714 2330 2161 1548 1532 1439 1409 1729 1113 963 472 394 151 70 0 0 80 226 375 570 808 1181 1170 1008 673 435 341 238 152 76 2 0 0 0 0 0 0 0 0 0 0 0 0 0 0
1554 1520 1362 1862 1570 1374 1402 1159 1123 1163 1466 1672 1816 1887 1770 1706 1826 1631 1477 1070 1194 1118 653 475 295 258 504 610 437 610 1296 1326 1376 1533 1219 904 899 777 521 482 671 944 1458 1834 1971 1781 1423 1016 1024 1417 868 605 269 203 8 0 0 174 321 34 420 889 1203 1000 737 473 355 136 9 0 0 0 0 0 0 0 0 0 0 0 0 0 0 0 0
1529 1522 1682 1906 1638 1418 1690 1313 1224 1526 1362 1481 1761 1798 1814 1784 1738 1598 1334 1323 1139 1024 667 710 255 438 271 569 1079 1238 1190 1334 1562 1094 664 391 432 612 953 917 848 541 941 1978 1702 1127 975 876 735 769 869 284 408 1 1 0 0 0 0 0 0 0 0 0 0 99 354 232 41 0 0 0 0 0 0 0 0 0 0 0 0 0 0 0 0
1610 1772 1791 1791 1740 1496 1792 1599 1394 1861 1509 1531 1696 1786 1831 1812 1602 1445 1252 1160 925 742 843 975 732 980 418 796 1409 1290 1380 1570 1148 739 1058 486 730 1088 1033 1051 1105 1013 1021 1867 1460 1150 713 1010 1102 573 1062 347 106 0 0 0 0 0 0 0 0 0 0 0 0 0 0 0 0 0 0 0 0 0 0 0 0 0 0 0 0 0 0 1 3
1878 1840 1788 1757 1874 1764 1772 1622 1663 1692 1897 1552 1631 1769 1778 1807 1568 1451 1220 1200 861 950 890 949 955 1239 1041 1328 1336 1345 1211 1138 910 847 680 760 911 968 871 916 1186 1081 632 1038 1252 856 948 1476 573 119 110 44 29 4 0 2 2 0 0 0 0 0 0 0 0 0 0 0 0 0 0 0 0 0 0 0 0 0 0 0 0 0 0 0 2
1954 1852 1753 1812 1910 1809 1729 1576 1646 1572 1814 1550 1657 1774 1723 1622 1549 1571 1165 964 970 1050 1070 1130 1120 1236 1107 1264 1445 1371 967 768 797 734 627 663 889 877 746 797 753 743 946 1536 1685 987 1221 675 430 147 103 2 7 0 0 8 8 0 0 0 0 0 0 0 0 0 0 0 0 0 0 0 0 0 0 0 0 0 1 0 0 0 0 1 2
1836 1915 1735 1873 1917 1840 1753 1711 1580 1444 1801 1516 1628 1695 1687 1547 1486 1380 1213 988 957 966 719 1064 1136 1225 1169 1258 1128 972 671 708 684 781 697 739 954 933 814 941 693 632 1158 1359 1425 1555 1803 1103 611 380 9 0 0 0 0 9 0 0 0 0 0 0 0 0 0 0 0 0 0 0 0 0 0 0 0 0 0 0 0 0 0 0 0 0 1
1955 1912 1918 1968 1913 1854 1625 1634 1638 1571 1738 1340 1526 1519 1556 1467 1360 1408 1284 1109 908 754 742 979 1023 981 1165 1078 954 926 736 696 672 701 901 872 900 852 889 930 572 841 1243 1472 1514 1378 803 631 491 335 18 0 0 0 51 30 200 0 0 0 0 0 0 0 0 0 0 0 0 0 0 0 0 0 0 0 0 0 0 0 0 0 0 0 0
2066 1938 2024 2049 1923 1828 1606 1437 1736 1758 1645 1490 1438 1478 1474 1330 1535 1409 1396 1272 832 885 686 874 1063 903 954 858 856 941 920 813 700 866 916 688 1029 1188 1089 731 839 1122 1192 1253 1421 658 498 530 520 364 158 0 0 0 7 8 210 189 0 0 0 0 0 0 0 0 0 0 0 0 0 0 0 0 0 0 0 0 0 0 0 0 0 0 0
2130 2022 2025 2013 1856 1788 1666 1544 1770 1677 1535 1681 1491 1468 1579 1443 1585 1502 1430 1216 819 1159 1001 843 749 734 711 756 781 831 787 811 882 797 997 746 624 842 906 948 1094 1206 1127 1189 653 592 711 422 372 391 0 0 0 0 3 263 242 0 0 0 0 0 0 0 0 0 0 0 0 0 0 0 0 0 0 0 0 0 0 0 0 0 0 0 0
2057 2029 1999 1950 1934 1865 1622 1482 1669 1642 1594 1662 1512 1492 1594 1478 1538 1499 1457 1186 1064 1048 872 663 611 618 684 720 810 1002 777 760 777 795 967 766 768 866 930 970 1025 920 880 636 598 533 384 428 484 90 264 0 0 0 24 238 261 6 0 0 0 0 0 0 0 0 0 0 0 0 0 0 0 0 0 0 0 0 0 0 0 0 0 0 0
2185 2085 2010 1982 1895 1776 1509 1458 1755 1598 1636 1676 1577 1536 1569 1465 1462 1467 1356 1294 1256 1085 953 831 742 687 686 743 815 998 885 732 671 934 795 629 832 798 734 1018 795 836 712 665 560 468 238 367 350 32 0 0 0 0 0 203 5 0 0 0 0 0 0 0 0 0 0 0 0 0 0 0 0 0 0 0 0 0 0 0 0 0 0 0 0
2225 2127 2050 1975 1821 1627 1412 1384 1778 1601 1674 1744 1679 1651 1532 1426 1463 1374 1321 1315 1308 1139 1124 1035 904 836 772 826 811 821 718 687 735 893 710 662 660 586 533 648 910 572 699 576 555 455 115 318 410 303 9 0 0 0 125 253 160 15 0 70 0 0 0 0 0 0 0 0 0 0 0 0 0 0 0 0 0 0 0 0 0 0 0 0 0
2103 2074 2044 1990 1828 1597 1397 1467 1727 1655 1711 1737 1700 1651 1540 1398 1429 1435 1271 1349 1323 1209 1170 1151 1065 915 803 756 856 843 752 713 735 663 645 643 640 586 511 656 895 630 479 312 238 16 0 0 376 263 37 0 0 0 0 347 401 22 15 195 0 177 143 0 0 0 0 0 0 0 0 0 0 0 0 0 0 0 0 0 0 0 0 0 0
2142 2159 2112 1992 1820 1588 1434 1645 1665 1653 1680 1741 1655 1587 1517 1414 1394 1380 1258 1115 1329 1278 1127 1102 1104 1007 915 921 890 800 728 692 625 563 569 521 542 545 617 441 343 326 327 241 60 0 0 0 372 335 289 0 0 0 0 221 378 305 124 235 146 174 192 41 0 0 0 0 0 0 0 0 0 0 0 0 0 0 0 0 0 0 0 0 0
2177 2230 2093 1987 1805 1509 1629 1643 1593 1556 1615 1676 1551 1489 1439 1445 1408 1316 1225 966 1173 1292 1185 1077 1020 975 938 957 947 666 821 686 545 673 600 530 508 468 420 425 366 321 254 237 0 0 0 4 311 366 141 0 0 0 0 50 241 276 341 297 219 235 160 0 0 0 0 0 0 0 0 0 0 0 0 0 0 0 0 0 0 0 0 0 0
2162 2138 2020 1979 1693 1470 1709 1634 1418 1452 1546 1577 1550 1516 1406 1330 1322 1256 1164 992 961 1093 1049 950 929 844 859 927 833 669 696 716 782 778 642 451 386 195 390 403 403 389 265 0 0 0 0 0 12 266 122 0 0 0 0 0 0 42 104 179 145 6 0 0 0 0 0 0 0 0 0 0 0 0 0 0 0 0 0 0 0 0 0 0 0
2057 2011 1993 1925 1645 1588 1656 1602 1426 1468 1436 1463 1528 1458 1392 1288 1197 1172 1021 1029 900 940 926 925 872 825 798 779 700 690 753 646 513 496 409 339 248 49 212 326 322 256 164 0 0 0 0 0 0 164 139 0 0 0 0 0 0 0 0 0 0 0 0 0 0 0 0 0 0 0 0 0 0 0 0 0 0 0 0 0 0 0 0 0 0
2053 2066 2050 1871 1776 1658 1645 1727 1475 1459 1428 1490 1529 1489 1339 1241 1139 946 1000 998 955 910 859 791 812 742 714 705 687 625 568 509 481 472 475 442 407 374 316 299 193 0 0 0 0 0 0 0 0 0 0 0 0 0 0 0 0 0 0 0 0 0 0 0 0 0 0 0 0 0 0 0 0 0 0 0 0 0 0 0 0 0 0 0 0
2046 2053 1992 1880 1771 1681 1700 1793 1592 1234 1506 1496 1542 1518 1449 1244 1150 1001 973 970 878 802 693 666 696 647 602 621 639 619 571 502 460 415 385 397 387 358 348 324 256 40 0 0 0 0 0 0 0 0 0 0 0 0 0 0 0 0 0 0 0 0 0 0 0 0 0 0 0 0 0 0 0 0 0 0 0 0 0 0 0 0 0 0 0
2070 2039 1986 1959 1895 1704 1884 1799 1574 1328 1565 1569 1541 1536 1450 1264 1071 1014 999 941 797 706 714 611 554 544 514 510 518 563 524 485 431 399 347 313 53 90 269 250 175 0 0 0 0 0 0 0 0 0 0 0 0 0 0 0 0 0 0 0 0 0 0 0 0 0 0 0 0 0 0 0 0 0 0 0 0 0 0 0 0 0 0 0 0
Wind_Speed
2 7 6 10 11 11 13 15 16 17 17 17 17 18 19 20 21 24 25 26 27 28 28 29 30 29 28 27 24 21 19 18 17 16 15 15 17 18 18 18 17 16 15 14 15 14 14 13 12 10 10 9 8 7 6 6 4 3 2 3 4 4 3 3 4 4 4 5 6 6 7 7 8 9 10 11 12 13 14 14 11 7 6 10 13
8 3 5 7 11 11 12 15 17 17 18 18 19 19 20 21 22 24 26 27 28 28 29 29 29 28 28 26 24 21 19 18 18 17 16 16 15 16 17 18 17 15 14 14 14 14 14 13 13 12 11 10 9 8 6 5 4 3 3 4 4 5 5 4 4 3 5 6 6 7 8 8 8 9 11 12 12 13 14 14 15 7 5 13 14
8 4 4 7 11 11 12 14 17 17 18 19 20 20 21 22 23 25 27 28 28 29 29 29 29 29 27 26 25 22 20 18 17 16 16 16 15 16 14 13 15 16 15 13 13 14 13 12 12 12 11 10 9 8 7 6 4 2 2 4 4 5 4 3 2 3 3 3 6 8 8 8 10 10 12 13 13 13 14 14 14 12 9 14 13
10 4 4 7 11 10 12 14 17 19 19 19 21 22 22 22 24 26 27 28 29 30 30 29 29 29 27 25 24 22 20 18 17 16 15 15 15 14 15 14 15 15 15 14 13 13 12 12 12 12 11 11 10 9 8 7 5 2 1 3 4 4 4 2 1 1 2 4 6 8 4 3 4 11 13 14 14 14 14 14 13 14 15 14 15
9 5 4 4 5 8 12 14 16 20 20 21 22 23 23 23 25 27 28 28 29 30 30 30 30 29 28 26 23 23 21 19 18 16 15 15 15 16 14 14 14 15 15 14 13 13 12 12 12 12 11 11 10 10 8 7 6 3 0 2 4 5 5 4 2 1 1 3 4 6 3 5 3 10 14 14 14 14 14 14 14 15 16 16 15
8 5 3 3 4 7 12 14 17 21 22 23 24 23 24 25 27 29 30 30 30 31 31 31 31 30 29 27 25 22 20 19 18 17 15 nan nan 13 14 14 14 15 15 15 14 13 12 12 12 12 12 11 11 10 9 8 6 4 3 4 5 6 6 5 4 3 2 1 4 4 5 6 5 7 14 13 13 14 15 15 15 16 17 17 15
11 4 2 2 3 7 13 15 20 22 24 25 26 26 26 27 29 30 31 32 32 33 32 32 32 31 29 27 25 23 21 20 19 17 16 15 14 14 14 14 15 15 15 15 14 13 12 11 12 12 12 12 12 12 11 10 8 7 5 5 5 6 6 5 4 3 1 1 5 8 7 8 6 7 13 13 13 15 15 15 15 15 15 16 16
5 4 2 1 2 8 14 17 22 25 27 28 28 28 28 29 30 32 33 33 33 33 34 33 33 33 30 28 26 24 22 20 19 18 17 15 14 15 15 16 16 16 15 15 14 13 11 10 10 11 12 13 13 13 12 11 10 8 6 3 4 5 7 7 8 9 7 3 6 9 nan 8 7 9 13 15 15 15 14 15 14 15 15 16 16
6 6 6 5 5 13 15 19 23 28 29 30 30 30 29 30 31 33 34 35 35 35 35 34 34 34 32 30 28 26 23 21 20 19 17 16 13 16 16 16 16 16 15 14 13 12 10 10 9 9 11 12 12 12 12 11 9 7 4 2 4 5 6 7 7 9 4 3 nan nan nan 9 9 8 13 15 15 15 15 14 13 14 15 16 16
8 8 9 7 8 16 18 21 24 29 30 31 31 30 30 31 32 33 34 36 35 35 36 35 35 34 33 31 29 27 25 22 21 20 18 17 16 17 18 16 17 17 16 14 13 12 11 9 9 8 8 9 10 10 10 8 7 5 3 3 4 5 4 4 5 5 3 1 nan nan nan 11 8 8 11 14 13 13 13 13 11 12 12 13 14
11 9 10 10 13 18 20 22 26 29 31 31 31 31 31 32 32 34 35 36 36 36 36 36 35 34 34 32 30 28 26 24 22 21 20 18 16 16 17 17 16 16 16 15 12 12 10 9 8 7 7 7 7 7 6 6 4 3 2 3 4 5 6 6 6 5 5 4 7 7 9 12 8 8 12 12 12 11 11 10 9 10 10 11 11
16 12 12 12 16 20 21 23 27 29 31 31 32 32 32 32 33 35 36 36 36 37 37 36 35 34 33 32 31 30 29 26 23 21 21 19 17 17 18 18 17 16 15 13 12 10 10 10 8 7 6 5 5 4 4 3 2 1 1 2 3 4 5 7 6 7 7 6 9 7 7 7 8 9 12 12 10 9 9 8 8 8 9 10 10
21 17 15 16 15 19 22 24 28 30 32 31 31 32 32 32 34 35 36 34 36 37 37 37 36 33 33 33 33 32 29 26 24 21 21 20 18 16 15 17 17 16 13 12 12 11 10 10 10 8 7 5 4 3 2 2 1 0 0 2 3 4 5 6 5 7 5 5 7 8 7 6 8 11 11 12 10 9 8 8 8 9 10 11 11
27 20 19 21 17 23 24 26 28 31 32 31 30 31 31 31 33 34 35 35 36 36 35 37 36 35 34 33 33 32 30 28 24 22 22 21 19 18 16 17 17 15 12 12 11 10 9 10 9 9 7 6 4 3 2 2 1 1 1 2 2 4 6 3 5 5 4 nan 7 9 8 7 8 13 12 13 12 10 10 10 9 9 11 11 12
30 27 23 22 22 21 29 28 29 32 32 29 29 29 30 30 30 32 34 36 36 35 35 37 36 36 35 34 34 33 32 30 26 23 22 21 20 18 16 17 15 13 12 11 11 10 9 8 8 7 6 4 3 2 1 1 2 1 1 2 2 3 3 3 5 4 4 4 7 9 8 8 12 14 15 15 13 12 11 11 10 10 11 12 12
30 31 28 24 23 23 24 29 32 33 32 31 29 30 30 30 30 31 33 35 35 34 35 35 36 36 35 34 34 34 33 31 28 24 22 21 20 19 17 16 15 12 11 10 11 10 9 7 7 5 4 3 1 1 1 2 3 3 3 3 4 3 3 3 5 5 3 nan 9 10 10 10 15 15 15 15 15 13 13 12 12 11 12 12 13
27 31 32 29 26 24 23 24 28 35 34 33 31 30 30 30 30 31 32 34 36 35 36 36 37 36 35 34 33 34 34 33 30 26 23 21 20 19 16 16 15 13 11 11 10 10 9 9 7 6 4 3 2 0 2 4 4 3 4 4 4 4 4 4 5 5 7 9 9 10 11 12 14 14 14 15 15 15 14 13 12 12 12 13 13
28 32 35 33 29 26 24 24 27 28 28 32 33 33 32 32 30 31 32 34 35 35 35 36 36 36 36 34 33 34 34 33 31 27 24 22 20 18 16 14 14 12 12 12 11 10 11 9 9 7 5 3 3 3 3 4 5 5 5 5 5 6 5 6 5 5 5 6 7 8 8 10 12 13 13 13 13 13 13 12 12 12 11 12 12
32 34 37 36 31 28 26 25 26 27 28 27 26 29 34 32 31 33 34 34 35 36 37 37 37 36 35 34 32 33 34 33 30 27 24 23 21 19 16 15 13 12 12 12 12 12 12 11 11 9 8 5 4 3 4 4 5 6 7 6 5 6 8 6 7 7 6 8 8 8 9 11 11 11 11 11 11 12 11 11 11 11 12 12 12
34 35 36 35 32 29 27 26 26 27 27 26 25 25 30 33 33 33 34 35 38 38 38 37 37 36 35 32 32 29 30 29 30 25 26 24 22 19 17 15 12 12 12 12 12 13 12 12 12 12 12 8 6 5 4 4 6 6 7 7 7 7 8 8 10 9 9 9 8 8 10 11 10 10 9 10 10 10 9 10 10 12 11 12 12
33 35 35 33 32 29 27 25 26 27 26 26 24 23 26 31 30 33 35 36 37 38 38 38 36 34 32 30 29 26 26 25 25 22 25 21 23 20 19 16 13 10 11 12 13 13 13 14 13 12 11 10 8 5 4 5 6 7 7 7 8 9 11 11 11 12 13 11 10 9 10 11 10 10 9 9 9 9 10 10 10 11 11 12 12
31 31 32 32 30 27 26 24 25 27 26 25 22 21 22 26 24 25 27 31 34 37 35 31 33 28 31 27 25 25 25 nan 23 25 22 22 22 21 19 17 14 10 10 11 12 12 14 13 14 12 12 10 8 7 5 4 6 7 9 9 9 12 12 11 13 15 13 11 11 10 12 13 13 13 12 11 11 11 10 11 11 13 14 15 15
26 25 26 28 28 26 24 24 25 26 27 25 22 20 22 22 23 24 25 29 31 33 31 32 29 29 26 24 24 23 nan 22 23 23 24 26 23 24 21 18 15 11 10 9 10 10 11 12 12 12 10 10 9 9 8 7 6 8 8 10 11 12 11 11 15 16 15 13 11 13 14 13 14 15 14 13 12 12 12 14 15 16 17 17 17
26 23 23 24 27 25 24 24 25 26 26 23 22 21 21 22 21 22 24 26 28 31 31 31 30 28 nan nan 23 22 21 22 25 29 28 24 24 25 23 19 15 12 9 9 8 8 8 9 11 11 12 12 11 12 12 11 10 nan 10 11 13 13 11 14 14 14 14 15 13 16 16 16 15 17 17 17 16 16 15 16 19 19 20 20 20
27 26 24 25 26 25 24 24 25 26 25 23 23 22 22 22 22 23 24 26 29 32 32 31 30 nan nan nan 23 21 20 20 21 22 25 25 24 23 21 19 16 13 11 12 11 11 11 11 13 14 15 14 14 14 15 14 13 13 14 14 13 10 13 16 14 14 15 14 14 19 19 18 18 19 19 19 19 20 20 22 24 25 25 25 26
29 27 26 25 24 24 24 25 26 26 25 24 24 24 24 23 23 24 25 27 30 32 32 32 30 nan nan nan 22 22 22 21 21 23 25 26 25 24 23 20 18 15 14 13 13 nan nan 12 13 13 12 15 16 16 15 16 14 14 16 15 12 14 17 16 14 14 14 14 15 22 21 20 19 20 20 20 21 21 22 24 26 27 27 26 27
30 28 28 24 23 22 24 26 26 26 26 26 24 24 23 24 24 26 27 29 30 32 33 31 29 nan nan 24 23 23 21 21 20 22 24 nan 25 24 23 21 18 16 15 14 14 15 14 15 14 13 11 12 13 12 14 15 15 17 17 16 16 19 19 18 16 15 15 14 17 23 21 20 19 19 19 20 20 21 22 23 25 27 27 26 27
31 30 28 25 24 24 25 27 27 27 26 27 26 25 24 26 26 28 28 30 32 32 32 31 29 30 nan 27 24 23 21 21 20 21 21 nan nan nan nan nan nan nan nan 16 15 15 14 14 13 12 14 14 12 11 14 nan nan nan nan 20 21 19 19 19 18 17 16 15 15 20 22 22 22 22 22 22 22 23 24 24 24 24 25 27 28
32 30 28 28 27 26 29 28 28 28 27 28 29 26 26 27 28 29 30 32 32 31 33 31 31 30 29 29 27 nan 20 19 19 19 21 22 nan nan nan nan nan nan 17 17 16 16 14 14 13 12 11 13 12 14 nan nan nan nan 21 22 22 21 20 20 19 18 17 16 16 19 24 24 24 nan nan nan nan nan nan nan nan nan nan nan nan
28 29 29 28 27 29 31 30 29 29 28 31 29 29 28 30 30 31 31 32 32 32 33 32 31 31 30 29 27 25 21 18 18 20 22 22 21 nan nan nan 19 19 19 20 17 15 15 13 12 11 12 12 15 13 16 nan nan nan 24 23 23 21 21 21 20 19 17 17 17 18 25 nan nan nan nan nan nan nan nan nan nan nan nan nan nan
27 29 30 30 30 32 32 31 31 30 29 32 32 31 31 33 32 32 33 33 32 33 33 32 32 31 30 29 26 24 22 19 19 17 19 24 23 25 24 22 22 20 19 20 18 16 13 12 11 11 14 12 10 nan nan nan nan 22 21 24 24 22 21 21 19 19 18 18 17 nan nan nan nan nan nan nan nan nan nan nan nan nan nan nan nan
34 36 35 35 36 35 36 34 33 32 32 34 34 34 35 35 34 35 34 33 33 33 33 33 33 33 30 28 26 24 23 20 20 21 22 24 27 27 26 23 20 19 18 21 18 15 14 12 12 11 13 12 12 14 nan nan nan 22 22 nan 23 22 20 20 19 18 18 18 nan nan nan nan nan nan nan nan nan nan nan nan nan nan nan nan nan
40 43 42 41 41 38 38 36 36 33 34 37 36 35 37 37 35 35 34 33 33 33 34 34 35 34 31 28 25 24 22 21 22 26 27 29 31 33 29 24 22 15 11 14 20 17 15 15 12 11 11 12 15 nan nan nan nan nan nan nan nan nan nan nan nan nan 16 17 nan nan nan nan nan nan nan nan nan nan nan nan nan nan nan nan nan
44 43 45 45 41 38 38 37 37 35 36 37 37 37 38 38 36 34 33 33 32 32 33 35 35 35 32 29 25 23 20 19 23 25 27 28 29 29 26 23 22 20 12 8 17 15 15 13 10 12 13 14 16 nan nan nan nan nan nan nan nan nan nan nan nan nan nan nan nan nan nan nan nan nan nan nan nan nan nan nan nan nan nan nan nan
46 43 45 45 43 40 39 37 37 36 37 36 39 38 39 38 36 34 33 32 32 33 34 35 36 35 33 29 25 22 21 25 25 27 26 27 28 25 24 23 17 20 18 10 14 14 14 12 13 15 14 nan nan nan nan nan nan nan nan nan nan nan nan nan nan nan nan nan nan nan nan nan nan nan nan nan nan nan nan nan nan nan nan nan nan
50 46 45 44 43 41 39 37 35 36 36 36 37 39 40 38 35 33 33 32 33 33 34 35 34 33 31 27 23 23 26 25 25 27 29 29 30 28 26 25 21 18 19 13 14 15 12 14 16 17 17 nan nan nan nan nan nan nan nan nan nan nan nan nan nan nan nan nan nan nan nan nan nan nan nan nan nan nan nan nan nan nan nan nan nan
51 48 46 44 42 41 39 37 36 35 36 36 38 38 39 37 34 34 33 33 33 33 33 34 32 30 27 24 22 24 24 25 26 27 29 29 29 27 24 25 23 21 20 14 11 12 14 15 15 18 nan nan nan nan nan nan nan nan nan nan nan nan nan nan nan nan nan nan nan nan nan nan nan nan nan nan nan nan nan nan nan nan nan nan nan
51 49 46 43 41 38 36 35 35 35 36 36 38 39 39 36 34 34 34 35 33 32 31 31 29 26 24 23 23 24 24 25 26 26 28 28 26 26 23 22 24 21 20 19 15 14 17 19 17 18 nan nan nan nan nan nan 22 nan nan nan nan nan nan nan nan nan nan nan nan nan nan nan nan nan nan nan nan nan nan nan nan nan nan nan nan
50 49 46 42 38 35 34 34 35 35 36 37 38 40 39 36 35 36 35 34 31 31 30 29 28 27 25 24 24 25 25 25 25 26 28 28 26 25 23 22 22 21 21 21 19 19 18 18 18 18 21 nan nan nan nan nan 23 22 nan nan nan nan nan nan nan nan nan nan nan nan nan nan nan nan nan nan nan nan nan nan nan nan nan nan nan
50 47 45 41 36 33 32 34 34 34 35 37 39 39 38 37 36 36 35 32 30 31 29 30 27 27 25 25 25 25 25 25 25 26 27 27 24 23 21 20 19 20 21 20 19 18 17 17 17 20 nan nan nan nan nan 23 22 nan nan nan nan nan nan nan nan nan nan nan nan nan nan nan nan nan nan nan nan nan nan nan nan nan nan nan nan
48 45 43 38 34 32 32 33 33 33 36 37 38 39 37 36 36 37 35 31 32 30 28 27 28 27 27 26 26 26 26 26 24 26 27 25 24 22 23 19 17 17 18 20 19 19 18 18 16 nan 22 nan nan nan nan 19 25 nan nan nan nan nan nan nan nan nan nan nan nan nan nan nan nan nan nan nan nan nan nan nan nan nan nan nan nan
44 42 39 34 31 31 31 32 33 34 36 37 38 38 35 35 36 35 34 31 32 30 27 27 28 27 28 28 26 27 28 27 26 25 24 23 24 25 23 21 19 18 15 19 21 20 20 19 17 nan nan nan nan nan nan 21 nan nan nan nan nan nan nan nan nan nan nan nan nan nan nan nan nan nan nan nan nan nan nan nan nan nan nan nan nan
42 38 33 31 29 29 30 32 33 34 35 37 39 37 35 35 35 34 34 31 26 27 28 28 28 29 27 27 28 29 29 28 26 25 24 21 23 25 25 22 20 18 17 19 19 20 20 20 19 21 nan nan nan nan 19 19 20 nan nan nan nan nan nan nan nan nan nan nan nan nan nan nan nan nan nan nan nan nan nan nan nan nan nan nan nan
37 32 29 28 26 28 31 32 33 34 35 37 38 36 36 36 36 36 33 31 28 28 29 28 29 29 27 26 28 30 30 29 27 25 23 22 23 24 25 23 19 20 21 20 18 nan nan nan 19 20 nan nan nan nan nan 19 21 nan nan 14 nan 17 15 nan nan nan nan nan nan nan nan nan nan nan nan nan nan nan nan nan nan nan nan nan nan
33 28 25 24 24 29 31 31 33 34 35 37 36 37 39 37 35 34 32 30 26 28 29 27 27 27 28 28 30 30 29 29 28 26 24 23 22 22 24 24 24 24 23 22 nan nan nan nan 20 21 22 nan nan nan nan 20 21 17 17 17 15 14 14 nan nan nan nan nan nan nan nan nan nan nan nan nan nan nan nan nan nan nan nan nan nan
31 25 22 22 27 30 31 31 33 34 34 34 34 36 34 34 33 32 31 29 29 29 30 30 28 28 29 29 30 31 30 29 28 27 25 24 23 22 22 24 24 25 25 25 nan nan nan nan 20 22 22 nan nan nan nan nan 20 18 15 12 13 15 20 nan nan nan nan nan nan nan nan nan nan nan nan nan nan nan nan nan nan nan nan nan nan
28 24 21 23 27 29 29 31 33 33 32 30 31 32 32 30 31 30 30 31 31 26 26 27 29 28 29 31 32 31 30 30 27 27 26 25 24 23 23 23 24 25 26 nan nan nan nan nan nan 22 22 nan nan nan nan nan nan nan 15 14 16 nan nan nan nan nan nan nan nan nan nan nan nan nan nan nan nan nan nan nan nan nan nan nan nan
28 24 22 24 25 27 29 31 31 31 29 28 28 30 30 28 28 29 30 30 29 28 29 29 29 30 31 32 32 31 30 28 29 28 27 26 26 nan 24 24 24 24 26 nan nan nan nan nan nan 22 23 nan nan nan nan nan nan nan nan nan nan nan nan nan nan nan nan nan nan nan nan nan nan nan nan nan nan nan nan nan nan nan nan nan nan
28 24 23 23 24 27 29 29 29 29 27 27 27 28 27 27 28 30 30 28 29 29 30 30 31 30 32 32 32 29 28 28 28 28 26 26 27 27 26 25 24 nan nan nan nan nan nan nan nan nan nan nan nan nan nan nan nan nan nan nan nan nan nan nan nan nan nan nan nan nan nan nan nan nan nan nan nan nan nan nan nan nan nan nan nan
27 26 24 24 26 27 28 28 28 28 27 27 27 28 28 29 30 31 34 31 32 32 32 31 31 31 33 32 30 28 27 27 27 27 28 28 28 28 28 27 25 nan nan nan nan nan nan nan nan nan nan nan nan nan nan nan nan nan nan nan nan nan nan nan nan nan nan nan nan nan nan nan nan nan nan nan nan nan nan nan nan nan nan nan nan
29 26 24 24 26 28 29 28 27 28 27 27 28 29 29 30 31 32 34 35 35 35 33 31 31 31 32 31 30 27 25 24 25 26 28 29 nan nan 27 26 26 nan nan nan nan nan nan nan nan nan nan nan nan nan nan nan nan nan nan nan nan nan nan nan nan nan nan nan nan nan nan nan nan nan nan nan nan nan nan nan nan nan nan nan nan
Wind_Direction
337 332 349 340 338 337 331 326 320 318 316 317 317 316 317 318 317 317 317 319 321 322 323 324 323 321 317 316 314 309 304 303 302 301 305 307 314 315 313 312 303 296 294 293 290 285 279 276 279 279 277 277 282 289 296 298 301 313 333 35 44 36 25 11 358 340 329 321 312 302 297 292 284 279 274 269 265 269 277 277 276 279 285 273 267
328 340 359 349 338 339 336 328 324 320 318 320 319 320 318 319 319 320 320 321 323 324 326 326 324 322 320 317 314 311 306 303 303 305 309 312 308 311 318 317 311 300 296 296 292 290 286 284 284 285 287 290 291 296 301 305 309 341 28 49 50 44 34 24 6 1 332 325 317 304 295 292 283 280 276 272 271 272 277 276 272 283 290 273 272
300 336 23 345 335 337 340 334 328 324 322 323 323 322 322 321 321 322 323 324 325 327 328 329 328 325 324 321 320 315 308 304 303 305 308 310 311 313 313 318 318 309 299 295 293 290 291 290 288 289 291 294 295 296 299 302 309 328 44 67 69 73 59 42 33 10 359 344 328 304 293 288 287 283 279 272 268 269 272 274 274 277 284 270 272
308 351 20 342 333 343 344 340 334 330 329 328 327 326 325 326 325 325 325 327 327 329 331 332 333 330 328 327 324 315 308 304 301 304 306 312 315 316 320 319 316 311 306 298 293 290 290 290 290 291 292 294 296 295 297 301 305 319 44 85 92 101 98 87 77 51 40 5 338 325 346 324 298 289 282 276 272 271 276 277 275 278 276 274 271
312 344 14 13 354 355 350 345 342 335 333 332 331 331 330 330 329 328 328 330 332 332 335 337 337 334 332 331 325 318 313 307 304 304 306 314 320 320 321 322 319 313 312 305 298 292 288 290 291 290 291 291 292 294 295 295 293 298 77 130 136 135 145 151 153 133 26 41 38 2 337 307 341 295 284 278 273 268 273 274 267 274 285 272 272
324 341 31 32 15 10 352 349 343 337 335 333 333 334 333 333 333 331 332 333 336 338 339 341 340 338 336 332 328 323 315 309 305 304 305 nan nan 318 321 324 325 319 314 315 309 301 295 292 291 291 289 289 288 288 288 286 282 274 224 186 173 167 164 168 168 147 137 69 18 351 340 314 350 313 283 280 280 279 273 272 274 275 280 275 274
319 342 21 46 39 8 350 347 341 340 336 333 332 333 335 335 335 334 335 337 339 340 341 342 340 338 336 333 331 325 314 310 307 302 301 304 308 315 326 330 329 324 318 318 318 312 306 300 295 290 287 284 283 282 284 285 285 272 253 216 189 178 173 173 157 142 139 53 354 333 335 317 344 307 283 282 283 291 280 276 277 279 282 284 282
311 310 324 320 22 347 341 339 338 339 336 333 332 333 335 337 336 335 336 339 340 342 341 341 341 337 335 336 333 325 319 311 299 298 299 302 311 316 322 329 330 325 324 321 321 318 316 308 299 292 284 281 279 280 282 287 287 281 264 241 200 179 169 170 165 161 179 261 325 327 nan 319 319 296 288 283 283 291 283 283 284 286 290 290 291
313 300 285 285 322 328 330 331 335 336 335 334 333 334 336 337 336 336 337 338 340 341 341 341 340 337 335 335 334 330 319 310 305 301 300 302 302 310 317 326 329 326 324 321 316 321 319 316 308 297 290 283 280 281 283 288 289 282 264 234 181 171 164 162 156 155 169 225 nan nan nan 315 305 299 295 292 290 292 295 301 299 294 293 294 292
304 296 279 278 306 319 320 325 331 332 334 333 332 334 336 337 336 336 337 338 339 340 341 340 339 338 335 334 335 332 324 314 308 302 302 305 312 315 317 325 331 329 325 322 321 322 324 321 314 308 303 295 289 285 286 286 279 270 239 193 165 152 145 129 132 119 93 88 nan nan nan 320 319 319 311 301 299 301 305 303 308 306 305 295 291
290 291 285 287 301 308 312 320 325 327 330 332 332 334 336 337 336 336 337 339 339 339 339 339 340 338 336 334 334 332 326 318 309 304 300 303 307 309 316 321 328 331 326 323 324 320 320 318 316 316 316 313 304 298 288 279 272 249 214 178 158 148 141 132 119 72 66 44 11 340 323 320 345 350 324 315 315 316 314 313 307 303 300 298 297
279 280 288 285 302 303 308 316 320 322 326 329 332 335 337 337 336 337 338 339 339 339 339 339 342 339 334 333 331 332 329 321 313 308 302 303 309 314 319 324 327 329 323 319 320 321 318 321 322 322 321 325 317 308 301 281 264 264 198 170 150 134 129 135 104 85 55 58 9 337 342 346 357 348 328 323 324 324 318 316 313 309 304 304 305
277 279 283 284 288 301 307 311 315 319 322 326 331 336 337 336 336 336 337 339 339 338 338 339 340 338 334 332 330 331 331 326 319 311 304 303 306 308 312 318 326 325 321 323 326 324 322 325 326 327 329 338 343 346 345 336 347 344 131 150 148 135 135 144 111 110 101 30 8 342 341 349 360 344 336 326 329 330 325 320 317 317 311 310 310
276 278 280 281 284 300 303 307 312 315 320 325 330 335 336 335 335 335 335 337 338 338 339 339 339 338 334 332 331 330 331 329 322 315 307 306 305 310 319 322 324 324 325 328 326 327 327 324 330 329 337 340 360 9 28 40 26 107 124 115 122 134 149 117 113 107 94 nan 1 344 344 356 1 347 340 335 338 338 332 325 326 323 320 318 317
280 281 278 281 288 291 304 305 310 313 317 322 329 333 335 334 333 332 333 335 336 337 339 338 338 336 334 332 330 329 330 329 325 319 312 307 306 310 316 324 323 326 325 330 331 328 331 330 321 332 330 342 345 28 47 59 29 66 102 111 111 102 121 37 66 62 86 72 2 345 349 2 354 353 347 343 345 344 339 340 342 339 335 335 335
283 283 282 282 287 292 296 307 311 311 314 319 325 330 332 331 330 331 331 332 334 337 339 338 336 336 334 332 331 330 329 327 326 322 315 307 307 309 317 320 328 328 328 328 331 331 331 330 328 319 331 344 360 190 129 92 63 31 13 31 44 56 81 65 52 51 20 nan 12 350 356 7 1 1 353 350 349 349 351 354 356 354 351 349 346
278 282 286 289 293 293 294 301 308 311 313 316 321 327 329 329 329 329 329 330 332 336 338 336 336 335 333 332 330 329 328 326 326 325 320 311 304 305 308 318 320 328 328 327 327 329 330 335 340 335 332 345 9 88 115 91 83 58 37 38 46 59 56 59 48 47 26 26 7 356 3 8 9 5 357 353 354 354 356 358 358 0 357 354 352
278 284 288 291 294 294 293 297 304 305 308 312 319 325 327 327 327 328 328 329 330 335 337 336 335 334 333 330 328 328 327 325 325 327 325 316 305 302 307 308 315 321 327 326 323 328 330 341 348 353 347 357 17 58 111 121 106 93 74 54 45 58 54 60 4 33 64 346 355 3 8 5 12 6 354 355 355 356 357 355 355 357 358 355 355
280 284 288 291 295 295 294 296 298 301 302 305 311 322 327 325 326 328 328 327 329 333 337 336 335 334 331 330 327 326 325 324 325 327 329 321 313 307 306 307 309 319 324 321 324 326 337 341 352 358 7 13 18 55 97 118 106 99 96 83 68 54 64 17 345 20 354 343 359 1 2 2 7 353 350 353 353 354 356 353 352 354 356 356 354
278 282 285 288 292 296 295 298 301 301 301 301 307 318 326 325 326 327 327 328 330 332 336 336 335 333 332 330 327 324 324 323 326 329 330 325 319 309 308 306 308 319 323 323 326 331 337 346 355 7 12 8 19 34 54 80 87 83 78 65 54 54 26 7 346 2 337 344 355 359 354 338 332 336 341 343 342 342 344 346 349 355 356 350 346
275 277 280 284 289 292 297 299 302 304 303 303 307 317 324 324 326 327 328 330 330 332 336 337 334 332 329 327 324 320 320 321 324 327 330 324 322 319 312 309 313 319 323 324 328 335 341 353 359 8 12 13 13 26 30 56 66 65 57 48 41 18 18 0 344 334 344 345 350 345 325 313 316 319 320 322 321 322 329 336 340 338 334 331 333
281 273 274 281 284 291 298 301 300 305 304 305 311 317 322 322 323 325 328 330 330 332 335 332 330 325 328 326 321 323 325 nan 326 331 327 325 326 326 317 312 315 320 318 324 330 336 348 352 359 6 13 13 20 352 343 25 59 52 33 26 15 12 14 351 342 331 327 338 336 330 307 309 308 304 305 310 312 316 323 324 322 323 319 320 322
287 278 271 280 284 290 299 301 301 302 304 306 311 317 319 319 322 325 328 328 329 329 329 330 325 324 322 324 324 327 nan 327 330 333 328 330 325 329 324 318 317 319 320 323 329 337 343 351 354 360 0 8 358 350 349 354 8 33 30 12 8 8 4 333 333 330 324 324 331 312 306 304 297 295 297 296 297 302 306 309 312 312 311 307 303
289 287 281 279 288 293 300 301 301 301 302 305 310 316 317 319 322 325 326 325 324 324 328 326 323 320 nan nan 326 328 331 329 337 339 332 325 326 330 329 323 317 315 318 303 307 319 340 347 348 350 346 348 354 354 354 352 358 nan 359 360 3 8 333 319 317 319 318 312 316 297 290 286 286 285 283 284 287 291 293 299 298 297 295 294 297
288 290 288 288 295 298 298 299 299 300 302 306 312 317 317 321 324 324 324 322 320 324 326 323 320 nan nan nan 326 328 331 330 331 323 318 322 322 322 320 311 298 290 296 290 294 300 310 317 326 336 340 350 359 359 355 350 350 350 351 351 360 334 315 309 316 311 309 314 308 286 284 284 283 283 284 286 290 293 295 294 294 291 292 294 295
287 290 292 295 298 301 301 298 299 302 304 310 315 318 320 322 324 323 322 321 322 323 321 320 318 nan nan nan 325 325 322 323 317 315 319 321 324 323 322 317 302 296 294 299 298 nan nan 319 328 332 338 348 351 355 353 350 350 346 341 345 332 314 308 309 306 303 303 305 300 285 286 284 286 284 284 288 291 292 292 292 293 291 293 295 296
286 289 290 295 299 303 299 299 298 303 309 314 314 316 319 322 322 320 321 321 320 319 318 316 316 nan nan 315 319 316 317 316 315 315 320 nan 325 326 324 318 309 301 297 300 299 300 309 312 317 327 325 325 335 339 350 348 341 341 333 331 316 309 305 301 301 299 298 301 297 287 287 285 282 280 281 284 287 289 290 294 293 291 293 295 296
285 290 290 292 299 302 296 300 301 306 310 314 313 315 319 319 320 320 318 318 317 316 313 314 311 313 nan 310 313 312 312 314 314 317 322 nan nan nan nan nan nan nan nan 298 299 302 298 309 303 304 312 318 324 343 345 nan nan nan nan 308 301 300 301 298 299 297 299 300 300 287 282 279 277 278 280 282 285 287 289 289 289 289 289 291 291
288 289 289 293 299 297 298 300 303 309 310 310 312 315 315 315 315 316 314 314 314 313 307 308 304 305 303 307 309 nan 305 310 311 317 319 323 nan nan nan nan nan nan 293 296 298 300 302 294 305 307 307 318 328 351 nan nan nan nan 316 309 304 301 297 297 297 295 295 297 294 286 278 278 280 nan nan nan nan nan nan nan nan nan nan nan nan
285 287 291 294 295 295 298 300 305 310 305 307 309 311 310 311 312 311 309 309 310 307 302 301 301 300 301 305 308 306 304 305 314 315 318 323 320 nan nan nan 301 293 289 289 291 290 289 294 305 317 313 318 333 324 305 nan nan nan 308 308 308 305 300 297 296 295 295 291 290 287 280 nan nan nan nan nan nan nan nan nan nan nan nan nan nan
279 288 291 291 292 291 293 299 301 304 298 305 305 308 303 307 307 307 304 306 306 299 299 297 297 299 301 304 303 301 301 298 303 305 306 315 314 308 302 297 291 286 286 279 272 277 288 298 301 310 307 302 297 nan nan nan nan 303 305 307 309 307 299 296 297 295 292 290 290 nan nan nan nan nan nan nan nan nan nan nan nan nan nan nan nan
284 290 289 287 290 290 291 296 298 298 297 301 300 302 300 303 301 300 302 300 297 295 295 295 297 300 300 302 300 299 298 293 295 298 310 299 288 284 269 256 250 241 243 262 266 269 272 282 285 287 296 302 304 299 nan nan nan 302 306 nan 306 303 299 295 295 294 292 292 nan nan nan nan nan nan nan nan nan nan nan nan nan nan nan nan nan
281 287 288 288 290 290 288 294 297 294 294 299 298 297 297 297 297 296 298 294 294 293 294 296 299 300 302 301 299 296 292 293 295 288 288 295 301 305 292 278 272 249 217 249 259 258 266 263 268 278 277 285 297 nan nan nan nan nan nan nan nan nan nan nan nan nan 282 288 nan nan nan nan nan nan nan nan nan nan nan nan nan nan nan nan nan
281 283 287 289 288 288 286 288 294 292 291 296 295 292 293 292 292 294 294 292 292 291 294 295 298 300 303 303 299 294 292 296 294 290 296 298 308 309 293 281 287 282 266 241 258 264 264 267 279 280 277 274 298 nan nan nan nan nan nan nan nan nan nan nan nan nan nan nan nan nan nan nan nan nan nan nan nan nan nan nan nan nan nan nan nan
279 283 287 288 287 288 287 287 289 290 288 292 292 289 288 290 290 292 291 291 290 291 294 294 296 299 301 303 299 302 295 280 287 290 294 293 294 303 284 276 290 285 288 300 282 278 278 284 289 274 272 nan nan nan nan nan nan nan nan nan nan nan nan nan nan nan nan nan nan nan nan nan nan nan nan nan nan nan nan nan nan nan nan nan nan
282 284 284 285 286 287 289 290 288 287 284 287 285 286 286 288 288 290 289 290 289 290 295 295 297 301 304 305 304 293 287 290 291 296 300 304 306 305 298 295 299 291 277 274 273 277 280 288 282 283 275 nan nan nan nan nan nan nan nan nan nan nan nan nan nan nan nan nan nan nan nan nan nan nan nan nan nan nan nan nan nan nan nan nan nan
280 284 285 284 285 287 291 290 288 284 281 282 282 281 283 286 287 289 289 289 291 293 295 295 298 303 308 307 294 293 294 296 298 300 303 302 302 302 300 298 298 290 279 273 272 280 284 283 278 280 nan nan nan nan nan nan nan nan nan nan nan nan nan nan nan nan nan nan nan nan nan nan nan nan nan nan nan nan nan nan nan nan nan nan nan
280 283 284 285 286 287 289 286 281 278 279 280 280 280 281 284 286 288 288 289 295 296 296 299 302 300 293 294 295 295 297 299 302 303 300 298 298 300 303 301 294 292 283 285 294 284 282 281 278 280 nan nan nan nan nan nan 298 nan nan nan nan nan nan nan nan nan nan nan nan nan nan nan nan nan nan nan nan nan nan nan nan nan nan nan nan
278 281 281 283 285 286 284 281 276 275 276 276 277 277 278 280 283 286 289 288 295 296 298 293 293 296 298 299 300 299 298 300 301 302 300 302 304 306 307 295 289 288 281 281 288 281 272 275 279 278 281 nan nan nan nan nan 297 292 nan nan nan nan nan nan nan nan nan nan nan nan nan nan nan nan nan nan nan nan nan nan nan nan nan nan nan
279 280 282 284 286 285 279 274 271 271 271 271 274 276 277 281 285 284 287 289 294 285 287 294 297 298 303 301 297 296 297 303 304 301 300 301 304 302 297 292 288 282 278 277 285 275 267 272 281 283 nan nan nan nan nan 291 290 nan nan nan nan nan nan nan nan nan nan nan nan nan nan nan nan nan nan nan nan nan nan nan nan nan nan nan nan
279 282 284 286 287 285 277 271 267 268 269 270 272 276 278 282 283 288 291 295 288 290 292 297 300 304 304 301 298 297 300 302 302 301 303 303 303 301 298 299 291 284 278 280 281 274 273 282 283 nan 288 nan nan nan nan 297 294 nan nan nan nan nan nan nan nan nan nan nan nan nan nan nan nan nan nan nan nan nan nan nan nan nan nan nan nan
279 283 288 289 284 278 273 266 262 265 266 267 270 274 275 282 284 289 288 286 293 296 302 303 305 305 302 302 299 299 302 303 303 301 300 303 304 303 303 301 292 284 282 276 272 272 273 273 276 nan nan nan nan nan nan 295 nan nan nan nan nan nan nan nan nan nan nan nan nan nan nan nan nan nan nan nan nan nan nan nan nan nan nan nan nan
282 285 287 284 281 274 266 261 260 262 263 265 269 272 274 279 283 286 286 287 293 303 306 307 305 304 303 304 303 303 303 301 300 299 299 301 303 303 303 299 293 289 276 271 274 277 282 278 274 287 nan nan nan nan 284 291 298 nan nan nan nan nan nan nan nan nan nan nan nan nan nan nan nan nan nan nan nan nan nan nan nan nan nan nan nan
281 280 285 285 275 267 259 259 257 259 262 265 268 271 273 274 278 284 288 296 309 310 305 305 303 303 306 306 304 304 301 299 298 296 297 301 303 304 303 301 294 284 280 272 272 nan nan nan 278 283 nan nan nan nan nan 285 292 nan nan 292 nan 291 285 nan nan nan nan nan nan nan nan nan nan nan nan nan nan nan nan nan nan nan nan nan nan
284 284 285 282 267 265 260 259 257 260 263 266 271 271 272 277 281 281 288 293 300 303 301 302 304 305 306 306 306 303 301 299 299 297 297 299 300 300 299 294 283 274 273 272 nan nan nan nan 274 273 286 nan nan nan nan 283 281 285 291 285 286 295 303 nan nan nan nan nan nan nan nan nan nan nan nan nan nan nan nan nan nan nan nan nan nan
284 283 279 271 263 260 260 258 256 258 265 267 273 274 280 288 294 296 301 304 305 305 307 309 308 309 310 308 303 302 301 299 298 297 296 298 302 302 294 287 280 273 271 273 nan nan nan nan 273 275 277 nan nan nan nan nan 277 270 271 272 287 294 295 nan nan nan nan nan nan nan nan nan nan nan nan nan nan nan nan nan nan nan nan nan nan
279 278 272 264 262 260 259 258 257 260 265 267 276 279 288 297 305 307 304 305 305 302 302 303 305 306 306 304 303 301 299 298 297 293 293 297 297 291 286 283 278 275 271 nan nan nan nan nan nan 270 277 nan nan nan nan nan nan nan 258 254 258 nan nan nan nan nan nan nan nan nan nan nan nan nan nan nan nan nan nan nan nan nan nan nan nan
277 274 265 261 264 262 258 256 257 264 268 270 280 286 294 300 303 296 298 303 306 308 311 309 305 305 303 304 301 297 292 290 291 289 287 288 287 nan 279 277 278 277 273 nan nan nan nan nan nan 275 276 nan nan nan nan nan nan nan nan nan nan nan nan nan nan nan nan nan nan nan nan nan nan nan nan nan nan nan nan nan nan nan nan nan nan
274 272 263 262 260 255 257 256 260 266 269 275 281 288 292 295 294 292 294 296 300 304 307 306 306 304 301 301 299 294 286 282 285 287 285 285 285 282 277 275 278 nan nan nan nan nan nan nan nan nan nan nan nan nan nan nan nan nan nan nan nan nan nan nan nan nan nan nan nan nan nan nan nan nan nan nan nan nan nan nan nan nan nan nan nan
270 267 264 261 258 256 259 262 261 266 269 276 283 286 287 288 290 294 297 297 297 298 301 306 307 305 302 301 297 293 289 284 280 282 282 285 286 282 277 276 278 nan nan nan nan nan nan nan nan nan nan nan nan nan nan nan nan nan nan nan nan nan nan nan nan nan nan nan nan nan nan nan nan nan nan nan nan nan nan nan nan nan nan nan nan
265 267 269 266 261 263 261 267 267 264 270 278 282 283 282 287 291 297 298 298 300 301 302 304 305 304 304 301 297 294 291 288 281 275 278 285 nan nan 279 279 279 nan nan nan nan nan nan nan nan nan nan nan nan nan nan nan nan nan nan nan nan nan nan nan nan nan nan nan nan nan nan nan nan nan nan nan nan nan nan nan nan nan nan nan nan